星链-2738 (STARLINK-2738 )

导读

STARLINK-2738是美国SpaceX公司星链(Starlink)卫星互联网星座中的一颗卫星,于2021年5月26日发射入轨。星链项目计划在低地轨道部署上万颗卫星,旨在为全球偏远及网络覆盖薄弱地区提供高速低延迟的宽带互联网服务,目前该星座已完成数千颗卫星部署,服务覆盖全球多个国家和地区。

基本信息
目录编号:
48668
目录名称:
STARLINK-2738
国际标识:
2021-044AG
轨道中心:
EARTH
卫星名称:
星链-2738
卫星全名:
星链-2738 (STARLINK-2738 )
卫星状态:
在轨 (已飞行1934 天)
发射日期:
2021-05-26 UTC
国别 :
美国 (US)
星等 :
--
该卫星已列入 空间交会检测服务 Space Conjunction Data Service (SCDS) ,当前飞行风险评估等级: 无高风险
轨道信息
数据来源 国际轨道数据 AOE轨道数据
星历时间 2026-09-11T12:38:49+0800
8小时前
查看轨道信息
2026-09-06T06:00:00+0800
5天前
查看轨道信息
半长轴 6848.885km 6848.819km
偏心率 0.0001035 0.0001773
轨道倾角 53.159° 53.157°
近地点辐角 79.632° 101.823°
升交点赤经 320.667° 345.233°
平近点角 280.480° 304.131°
近地点 470.039km 469.467km
远地点 471.457km 471.897km
周期 94.013分钟 94.012分钟
每日圈数 15.316975 15.317196
详细信息
固有亮度:
5
最大亮度:
2.5
卫星平台:
Starlink V1.0
覆盖范围:
全球
运营商:
太空探索技术公司
运营商所在国:
美国
制造商(研发单位):
太空探索技术公司
制造商所在国:
美国
使用方式:
暂无
卫星简介
星链(Starlink)计划是由太空探索技术公司(SpaceX)提出的一个巨型低轨卫星互联网星座项目,计划在2019年至2024年间在太空搭建由约1.2万颗卫星组成的“星链”网络,其中1584颗将部署在地球上空550千米处的近地轨道,并从2020年开始工作。该卫星仍在工作。
2D轨道图
3D轨道图
轨道高度分析图
轨道倾角分析图
轨道综合分析图
查看轨道综合分析图
交会数据列表
事件ID 空间交会对象 最接近时刻(TCA) 交会距离 交会风险概率(CRP) 交会风险指数(CRI) 操作
CDM_260911-120904-809704-866822
2026-09-11T
12:09:06+0000
1.744 km
极远距离
2.097026E-6 低风险 0.41
CDM_260911-115904-866806-788322
2026-09-11T
11:59:12+0000
2.415 km
极远距离
1.787628E-6 低风险 0.4
CDM_260913-125004-866806-544521
2026-09-13T
12:50:32+0000
2.832 km
极远距离
1.423557E-6 低风险 0.38
CDM_260912-022104-866806-904122
2026-09-12T
02:21:54+0000
2.866 km
极远距离
1.395442E-6 低风险 0.38
CDM_260913-050504-623204-866822
2026-09-13T
05:05:29+0000
2.713 km
极远距离
9.203224E-7 极低风险 0.34
与全量物体交会距离演化趋势
与全量物体交会风险概率演化趋势